Home   Weather   Halle   Past weeks

Flag for Germany Past Weather in Halle, Saxony-Anhalt, Germany — Yesterday and Last 2 Weeks

Now
25 °F

Passing clouds.


Feels Like: 25 °F
Forecast: 19 / 31 °F
Wind: 2 mph from Southwest

Location: Leipzig-Schkeuditz

Current Time: Jan 20, 2017 at 11:17:19 pm

Latest Report: Jan 20, 2017 at 10:20 pm


Visibility: N/A

Pressure: 30.54 "Hg

Humidity: 86%

Dew Point: 21 °F

Location of HalleLocation

Past Weather in Halle — Graph

°F

Halle Temperature Yesterday

Maximum temperature yesterday: 23 °F (at 12:20 am)
Minimum temperature yesterday: 16 °F (at 7:20 pm)
Average temperature yesterday: 20 °F

High & Low Weather Summary for the Past Weeks

 TemperatureHumidityPressure
High39 °F (Jan 12, 11:20 am)100% (Jan 7, 6:50 pm)30.74 "Hg (Jan 7, 6:50 pm)
Low12 °F (Jan 7, 12:20 am)59% (Jan 7, 2:50 pm)29.00 "Hg (Jan 13, 6:20 am)
Average28 °F87%30.18 "Hg
* Reported Jan 5 10:20 pm — Jan 20 10:20 pm, Halle, Weather by CustomWeather, © 2017

Note: Actual official high and low records may vary slightly from our data, if they occured in-between our weather recording intervals... More about our weather records

Advertising

Halle Weather History for the Previous 24 Hours

Scroll right to see more
 ConditionsComfort  
Time TempWeatherWind HumidityBarometerVisibility
10:20 pm
Fri, Jan 20
25 °FPassing clouds.2 mph86%30.54 "HgN/A
9:50 pm25 °FPassing clouds.2 mph80%30.54 "HgN/A
9:20 pm25 °FPassing clouds.2 mph80%30.54 "HgN/A
8:50 pm25 °FPassing clouds.3 mph80%30.54 "HgN/A
8:20 pm27 °FPassing clouds.2 mph74%30.54 "HgN/A
7:50 pm27 °FPassing clouds.3 mph80%30.54 "HgN/A
7:20 pm27 °FPassing clouds.3 mph80%30.54 "HgN/A
6:50 pm27 °FPassing clouds.2 mph80%30.54 "HgN/A
6:20 pm27 °FPassing clouds.2 mph80%30.54 "HgN/A
5:50 pm28 °FPassing clouds.2 mph80%30.54 "HgN/A
5:20 pm28 °FPassing clouds.5 mph80%30.54 "HgN/A
4:50 pm30 °FPassing clouds.2 mph75%30.54 "HgN/A
4:20 pm32 °FPartly sunny.2 mph69%30.54 "HgN/A
3:50 pm32 °FPartly sunny.No wind69%30.54 "HgN/A
3:20 pm32 °FPartly sunny.1 mph69%30.54 "HgN/A
2:50 pm30 °FPartly sunny.2 mph69%30.54 "HgN/A
2:20 pm32 °FPartly sunny.1 mph69%30.57 "HgN/A
1:50 pm32 °FPartly sunny.2 mph69%30.57 "HgN/A
1:20 pm30 °FPartly sunny.3 mph69%30.57 "HgN/A
12:50 pm30 °FPartly sunny.6 mph80%30.57 "HgN/A
12:20 pm30 °FPartly sunny.5 mph75%30.60 "HgN/A
11:50 am28 °FPartly sunny.6 mph80%30.60 "HgN/A
11:20 am28 °FPartly sunny.3 mph86%30.60 "Hg6 mi
10:50 am28 °FPartly sunny.6 mph86%30.60 "Hg6 mi
10:20 am27 °FPartly sunny.5 mph86%30.60 "Hg6 mi
9:50 am27 °FPartly sunny.5 mph86%30.60 "Hg6 mi
9:20 am27 °FPartly sunny.6 mph86%30.60 "Hg5 mi
8:50 am25 °FPartly sunny.6 mph86%30.60 "Hg4 mi
8:20 am25 °FPartly sunny.7 mph86%30.60 "Hg4 mi
7:50 am25 °FPassing clouds.6 mph86%30.60 "Hg4 mi
7:20 am25 °FPassing clouds.7 mph86%30.60 "Hg4 mi
6:50 am23 °FPassing clouds.6 mph93%30.60 "Hg4 mi
6:20 am25 °FPassing clouds.6 mph86%30.60 "Hg4 mi
5:50 am25 °FSnow flurries. Passing clouds.3 mph86%30.60 "Hg5 mi
5:20 am23 °FSnow flurries. Passing clouds.5 mph93%30.60 "Hg5 mi
4:50 am23 °FClear.5 mph93%30.60 "Hg5 mi
4:20 am23 °FClear.6 mph93%30.60 "Hg5 mi
3:50 am23 °FClear.3 mph86%30.60 "Hg4 mi
3:20 am23 °FClear.5 mph86%30.60 "Hg4 mi
2:50 am23 °FClear.6 mph86%30.60 "Hg4 mi
2:20 am23 °FIce fog.5 mph86%30.60 "Hg3 mi
1:50 am23 °FIce fog.6 mph86%30.60 "Hg3 mi
1:20 am21 °FClear.5 mph93%30.63 "Hg4 mi
12:50 am21 °FClear.5 mph93%30.63 "Hg4 mi
12:20 am21 °FIce fog.7 mph93%30.63 "Hg3 mi
11:50 pm
Thu, Jan 19
21 °FIce fog.6 mph93%30.63 "Hg3 mi
11:20 pm21 °FIce fog.5 mph93%30.63 "Hg3 mi
Weather by CustomWeather, © 2017

See weather overviewHow to use our weather pages